Location: Newark
(7.0858°N, 171.3717°E)
Time: 07:34:03
(UTC+00:00)

Courier 1B - Pass Details

Date: 28 November 2020
Orbit: 962 x 1209 km, 28.3° (Epoch: 20 January)

Event Time Altitude Azimuth Distance (km) Brightness Sun altitude
Rises 20:24:43 0° 267° (W) 4,105 10.3 25.0°
Reaches altitude 10° 20:28:45 10° 248° (WSW) 3,134 9.9 25.9°
Maximum altitude 20:33:36 18° 209° (SSW) 2,584 9.9 27.0°
Drops below altitude 10° 20:38:23 10° 170° (S) 3,073 10.7 28.0°
Sets 20:42:19 0° 151° (SSE) 3,993 11.5 28.9°
